COSMOS 1605

Satellite information

Favourite Embed

Satellite Type and Status

PAYLOADIN ORBIT

Key statistics

Satellite COSMOS 1605 at a glance.

Uptime

15000

Days in orbit

Revolutions

≈ 13.8

Per day

Orbit

LEO

Low Earth Orbit

Inclination

82.9

Latest

Satellite identification and parameters

Extended collection of information and parameters for COSMOS 1605.

Object identification

Identified? True

Debris? False

Object name: COSMOS 1605

International designator: 1984-109A

Object number (NORAD): 15359

Object ID (CCSDS): 15359

Country: COMMONWEALTH OF INDEPENDENT STATES (CIS)

Current information (Y/N): Y

RCS size: LARGE

Orbital parameters

Period: 104.697 minutes

Inclination: 82.9379 deg

SMA: 7358.397 km

Apoapsis: 1013.567 km

Periapsis: 946.957 km

RAAN: 318.4937 deg

Eccentricy: 0.0045261

Argument of periapsis: 227.2356 deg

Mean anomaly: 306.0361 deg

Mean motion: 13.75396552 rev/day

Mean motion (dot): 0.00000082 rev/day2

B* drag term: 0.000069776 1/REarth

Two-line elements (TLE)

Creation date: Nov. 4, 2025, 11:56 p.m.

Reference frame: TEME

Reference center: EARTH

Epoch: Nov. 4, 2025, 6:56 p.m. UTC

TLE line 0: 0 COSMOS 1605

TLE line 1: 1 15359U 84109A 25308.78902759 .00000082 00000-0 69776-4 0 9999

TLE line 2: 2 15359 82.9379 318.4937 0045261 227.2356 306.0361 13.75396552 60981

Live tracking on map

Real-time ground track for satellite COSMOS 1605.

In-orbit conjunctions

A list of the most updated potential collisions computed for object COSMOS 1605.

Target Orbit TCA Probability of collision Miss distance Type
FENGYUN 1C DEB SSO 2025-06-06 21:28:33 0.0008015332 594.0 (m) DEBRIS
COSMOS 1275 DEB LEO 2024-10-03 00:42:42 0.0001279309 615.0 (m) DEBRIS
COSMOS 249 DEB LEO 2024-08-12 09:30:41 0.0001021774 901.0 (m) DEBRIS

Associated space launch

Navigation satellite providing location information for the Tsiklon-B navigation system

COSMOS 1605 was lifted into orbit during the mission ‘Kosmos-3M | Parus 46’, on board a Kosmos-3M space rocket.

The launch took place on Oct. 11, 1984, 2:43 p.m. from 132/2.

For more information about the launch, click the button.

Launch to space Kosmos-3M | Parus 46
Kosmos-3M | Parus 46

Agency: N/A

Status: Launch Successful

Launch date: Oct. 11, 1984, 2:43 p.m. UTC

Rocket: Kosmos-3M

Launch pad: 132/2

Location: Plesetsk Cosmodrome, Russian Federation

...

Latest news about this satellite

There are no fresh news available about this satellite. Check back as we update our databases every day.


Newsletter sign-up

Weekly statistics, charts and insights to help you stay on top of the space industry.